Location: Москва
(55.7518°N, 37.5952°E)
Time: 04:47:23
(UTC+03:00)

ISS - Pass Details

Date: 27 January 2021
Orbit: 417 x 422 km, 51.6° (Epoch: 17 May)

Event Time Altitude Azimuth Distance (km) Brightness Sun altitude
Rises 19:46:23 0° 265° (W) 2,376 1.5 -24.0°
Reaches altitude 10° 19:48:34 10° 258° (WSW) 1,512 0.1 -24.3°
Enters shadow 19:50:40 29° 231° (SW) 804 -2.0 -24.6°
